Weather History for Kaiser, MO

Change the Weather History Date:

Monday, January 28, 2013

  Actual Average Record
Temperature  
Mean Temperature 65 °F -  
Max Temperature 73 °F 40 °F 73 °F (2013)
Min Temperature 57 °F 23 °F -4 °F (1997)
Growing Degree Days 15 (Base 50)    
Moisture  
Dew Point 55 °F    
Average Humidity 68    
Maximum Humidity 88    
Minimum Humidity 50    
Precipitation  
Precipitation 0.00 in - - ()
Sea Level Pressure  
Sea Level Pressure 29.89 in    
Wind  
Wind Speed 12 mph (SSW)    
Max Wind Speed 28 mph    
Max Gust Speed 36 mph    
Visibility 10 miles    
Events      
Averages and records for this station are not official NWS values.
T = Trace of Precipitation, MM = Missing Value Source: NWS Daily Summary

Daily Weather History Graph

Daily Weather History Graph

Search for Another Location

Airport:

Trip Planner

Search our weather history database for the weather conditions in past years. The results will help you decide how hot, cold, wet, or windy it might be!

Date:

Astronomy

Jan. 28, 2013 Rise Set
Actual Time 7:17 AM CST 5:29 PM CST
Civil Twilight 6:49 AM CST 5:57 PM CST
Nautical Twilight 6:18 AM CST 6:28 PM CST
Astronomical Twilight 5:47 AM CST 6:59 PM CST
Moon 7:21 PM CST (1/28) 7:46 AM CST (1/28)
Length of Visible Light 11h 07m
Length of Day
10h 11m
Full, 98% of the Moon is Illuminated
Jan 28
Full
Feb 3
Last Quarter
Feb 10
New
Feb 17
First Quarter
Feb 25
Full

Hourly Weather History & Observations

Time (CST) Temp. Dew Point Humidity Pressure Visibility Wind Dir Wind Speed Gust Speed Precip Events Conditions
12:15 AM 57.2 °F 51.8 °F 82% 29.94 in 10.0 mi South 12.7 mph 18.4 mph N/A   Unknown
12:35 AM 57.2 °F 51.8 °F 82% 29.94 in 10.0 mi SSW 13.8 mph 21.9 mph N/A   Unknown
12:55 AM 57.2 °F 51.8 °F 82% 29.93 in 10.0 mi South 9.2 mph - N/A   Unknown
1:15 AM 57.2 °F 51.8 °F 82% 29.93 in 10.0 mi South 8.1 mph - N/A   Unknown
1:35 AM 57.2 °F 51.8 °F 82% 29.94 in 10.0 mi South 9.2 mph - N/A   Unknown
1:55 AM 57.2 °F 51.8 °F 82% 29.94 in 10.0 mi SSW 8.1 mph - N/A   Unknown
2:15 AM 57.2 °F 51.8 °F 82% 29.94 in 10.0 mi South 6.9 mph - N/A   Unknown
2:35 AM 57.2 °F 51.8 °F 82% 29.94 in 10.0 mi South 6.9 mph - N/A   Unknown
2:55 AM 57.2 °F 51.8 °F 82% 29.93 in 10.0 mi SSE 6.9 mph - N/A   Unknown
3:15 AM 57.2 °F 51.8 °F 82% 29.93 in 10.0 mi South 5.8 mph - N/A   Unknown
3:35 AM 57.2 °F 51.8 °F 82% 29.93 in 10.0 mi South 6.9 mph - N/A   Unknown
3:55 AM 57.2 °F 51.8 °F 82% 29.92 in 10.0 mi South 5.8 mph - N/A   Unknown
4:15 AM 57.2 °F 51.8 °F 82% 29.92 in 10.0 mi SSE 4.6 mph - N/A   Unknown
4:35 AM 57.2 °F 51.8 °F 82% 29.92 in 10.0 mi Calm Calm - N/A   Unknown
4:55 AM 57.2 °F 53.6 °F 88% 29.91 in 10.0 mi SSE 5.8 mph - N/A   Unknown
5:15 AM 59.0 °F 53.6 °F 82% 29.91 in 10.0 mi SSW 11.5 mph 16.1 mph N/A   Unknown
5:55 AM 62.6 °F 55.4 °F 77% 29.91 in 10.0 mi SSW 10.4 mph 23.0 mph N/A   Unknown
6:15 AM 62.6 °F 55.4 °F 77% 29.92 in 10.0 mi SW 13.8 mph 20.7 mph N/A   Unknown
6:35 AM 62.6 °F 55.4 °F 77% 29.92 in 10.0 mi SSW 15.0 mph - N/A   Unknown
6:55 AM 62.6 °F 55.4 °F 77% 29.92 in 10.0 mi SSW 13.8 mph 19.6 mph N/A   Unknown
7:15 AM 62.6 °F 55.4 °F 77% 29.92 in 10.0 mi SSW 10.4 mph - N/A   Unknown
7:35 AM 62.6 °F 55.4 °F 77% 29.93 in 10.0 mi SSW 11.5 mph - N/A   Unknown
7:55 AM 62.6 °F 55.4 °F 77% 29.94 in 10.0 mi SSW 13.8 mph - N/A   Unknown
8:15 AM 62.6 °F 55.4 °F 77% 29.94 in 10.0 mi SSW 9.2 mph 18.4 mph N/A   Unknown
8:35 AM 64.4 °F 57.2 °F 77% 29.94 in 10.0 mi SW 13.8 mph 20.7 mph N/A   Unknown
8:55 AM 64.4 °F 57.2 °F 77% 29.94 in 10.0 mi SSW 12.7 mph 20.7 mph N/A   Unknown
9:15 AM 66.2 °F 57.2 °F 73% 29.94 in 10.0 mi SSW 17.3 mph 23.0 mph N/A   Unknown
9:35 AM 66.2 °F 57.2 °F 73% 29.94 in 10.0 mi SSW 17.3 mph 26.5 mph N/A   Unknown
9:55 AM 68.0 °F 57.2 °F 68% 29.94 in 10.0 mi SW 13.8 mph 25.3 mph N/A   Unknown
10:15 AM 69.8 °F 57.2 °F 64% 29.94 in 1.8 mi SW 20.7 mph 27.6 mph N/A   Overcast
10:35 AM 69.8 °F 57.2 °F 64% 29.94 in 10.0 mi SSW 20.7 mph 28.8 mph N/A   Overcast
11:15 AM 71.6 °F 57.2 °F 60% 29.93 in 10.0 mi SW 20.7 mph 26.5 mph N/A   Overcast
11:35 AM 71.6 °F 57.2 °F 60% 29.93 in 10.0 mi SW 25.3 mph 31.1 mph N/A   Overcast
11:55 AM 71.6 °F 57.2 °F 60% 29.92 in 10.0 mi SW 17.3 mph 28.8 mph N/A   Overcast
12:15 PM 73.4 °F 57.2 °F 57% 29.92 in 10.0 mi SW 27.6 mph 35.7 mph N/A   Overcast
12:35 PM 73.4 °F 57.2 °F 57% 29.91 in 10.0 mi SSW 25.3 mph 31.1 mph N/A   Mostly Cloudy
12:55 PM 73.4 °F 57.2 °F 57% 29.90 in 10.0 mi SW 23.0 mph 31.1 mph N/A   Mostly Cloudy
1:15 PM 71.6 °F 57.2 °F 60% 29.90 in 10.0 mi SW 19.6 mph 25.3 mph N/A   Overcast
1:35 PM 71.6 °F 57.2 °F 60% 29.89 in 10.0 mi SW 17.3 mph 26.5 mph N/A   Overcast
1:55 PM 73.4 °F 57.2 °F 57% 29.88 in 10.0 mi SW 16.1 mph 25.3 mph N/A   Overcast
2:15 PM 73.4 °F 57.2 °F 57% 29.87 in 10.0 mi SW 15.0 mph 21.9 mph N/A   Overcast
2:35 PM 73.4 °F 57.2 °F 57% 29.87 in 10.0 mi SW 20.7 mph 26.5 mph N/A   Overcast
2:55 PM 73.4 °F 55.4 °F 53% 29.87 in 10.0 mi SSW 16.1 mph 24.2 mph N/A   Overcast
3:15 PM 73.4 °F 55.4 °F 53% 29.87 in 10.0 mi SW 19.6 mph 26.5 mph N/A   Mostly Cloudy
3:35 PM 73.4 °F 55.4 °F 53% 29.87 in 10.0 mi SW 16.1 mph 20.7 mph N/A   Mostly Cloudy
3:55 PM 73.4 °F 55.4 °F 53% 29.87 in 10.0 mi SSW 18.4 mph - N/A   Mostly Cloudy
4:15 PM 73.4 °F 55.4 °F 53% 29.87 in 10.0 mi SSW 13.8 mph 20.7 mph N/A   Mostly Cloudy
4:35 PM 73.4 °F 53.6 °F 50% 29.87 in 10.0 mi SW 16.1 mph 23.0 mph N/A   Mostly Cloudy
4:55 PM 73.4 °F 53.6 °F 50% 29.87 in 10.0 mi SSW 10.4 mph 18.4 mph N/A   Mostly Cloudy
5:15 PM 71.6 °F 53.6 °F 53% 29.86 in 10.0 mi SSW 12.7 mph 24.2 mph N/A   Mostly Cloudy
5:35 PM 71.6 °F 53.6 °F 53% 29.86 in 10.0 mi South 10.4 mph - N/A   Mostly Cloudy
5:55 PM 69.8 °F 53.6 °F 56% 29.86 in 10.0 mi South 9.2 mph - N/A   Scattered Clouds
6:15 PM 69.8 °F 53.6 °F 56% 29.86 in 10.0 mi South 8.1 mph - N/A   Clear
6:35 PM 69.8 °F 53.6 °F 56% 29.86 in 10.0 mi South 10.4 mph - N/A   Mostly Cloudy
6:55 PM 69.8 °F 53.6 °F 56% 29.86 in 10.0 mi South 10.4 mph - N/A   Overcast
7:15 PM 69.8 °F 53.6 °F 56% 29.87 in 10.0 mi South 10.4 mph - N/A   Overcast
7:35 PM 68.0 °F 53.6 °F 60% 29.86 in 10.0 mi South 12.7 mph 18.4 mph N/A   Overcast
7:55 PM 68.0 °F 55.4 °F 64% 29.86 in 10.0 mi South 13.8 mph 19.6 mph N/A   Overcast
8:15 PM 68.0 °F 55.4 °F 64% 29.86 in 10.0 mi South 13.8 mph 18.4 mph N/A   Overcast
8:35 PM 66.2 °F 55.4 °F 68% 29.86 in 10.0 mi South 18.4 mph 23.0 mph N/A   Overcast
8:55 PM 66.2 °F 55.4 °F 68% 29.85 in 10.0 mi South 13.8 mph 24.2 mph N/A   Mostly Cloudy
9:15 PM 66.2 °F 55.4 °F 68% 29.84 in 10.0 mi South 17.3 mph 21.9 mph N/A   Scattered Clouds
9:35 PM 66.2 °F 55.4 °F 68% 29.84 in 10.0 mi South 12.7 mph 20.7 mph N/A   Partly Cloudy
9:55 PM 66.2 °F 55.4 °F 68% 29.83 in 10.0 mi South 16.1 mph 23.0 mph N/A   Clear
10:15 PM 66.2 °F 55.4 °F 68% 29.83 in 10.0 mi South 16.1 mph 24.2 mph N/A   Clear
10:35 PM 66.2 °F 55.4 °F 68% 29.82 in 10.0 mi South 16.1 mph 21.9 mph N/A   Partly Cloudy
10:55 PM 66.2 °F 57.2 °F 73% 29.82 in 10.0 mi South 13.8 mph 24.2 mph N/A   Scattered Clouds
11:15 PM 66.2 °F 57.2 °F 73% 29.82 in 10.0 mi South 15.0 mph 19.6 mph N/A   Scattered Clouds
11:35 PM 66.2 °F 57.2 °F 73% 29.82 in 10.0 mi SSW 17.3 mph 28.8 mph N/A   Scattered Clouds
11:55 PM 66.2 °F 57.2 °F 73% 29.82 in 10.0 mi South 13.8 mph 27.6 mph N/A   Scattered Clouds